This is the latest recevied weather packets stored in our database for station/object K6CQU-13. If no packets are shown the sender has not sent any weather packets the latest 10 day(s).
| Time | Temp. | Humidity | Pressure | Rain* | Wind** | Luminosity | Snow |
|---|---|---|---|---|---|---|---|
| 1777762218 | 24.44° C | 44% | 1010.3 hPa | 0 mm | - | 663 W/m² | - |
| 1777761918 | 24.44° C | 44% | 1010.4 hPa | 0 mm | - | 618 W/m² | - |
| 1777761618 | 24.44° C | 44% | 1010.6 hPa | 0 mm | - | 714 W/m² | - |
| 1777761318 | 24.44° C | 45% | 1010.6 hPa | 0 mm | - | 643 W/m² | - |
| 1777761018 | 23.89° C | 44% | 1010.6 hPa | 0 mm | - | 666 W/m² | - |
| 1777760718 | 24.44° C | 44% | 1010.7 hPa | 0 mm | - | 724 W/m² | - |
| 1777760418 | 24.44° C | 45% | 1010.8 hPa | 0 mm | - | 721 W/m² | - |
| 1777760118 | 23.89° C | 45% | 1010.8 hPa | 0 mm | - | 634 W/m² | - |
| 1777759818 | 23.89° C | 45% | 1010.9 hPa | 0 mm | - | 628 W/m² | - |
| 1777759518 | 23.89° C | 45% | 1011 hPa | 0 mm | - | 648 W/m² | - |
| 1777758918 | 23.33° C | 49% | 1011.1 hPa | 0 mm | - | 669 W/m² | - |
| 1777758618 | 22.78° C | 48% | 1011.1 hPa | 0 mm | - | 693 W/m² | - |
| 1777758318 | 22.78° C | 48% | 1011.1 hPa | 0 mm | - | 692 W/m² | - |
| 1777758018 | 22.78° C | 49% | 1011.2 hPa | 0 mm | - | 748 W/m² | - |
| 1777757718 | 22.78° C | 49% | 1011.2 hPa | 0 mm | - | 868 W/m² | - |
| 1777757418 | 22.78° C | 48% | 1011.2 hPa | 0 mm | - | 819 W/m² | - |
| 1777757117 | 23.33° C | 48% | 1011.4 hPa | 0 mm | - | 858 W/m² | - |
| 1777756817 | 23.33° C | 48% | 1011.4 hPa | 0 mm | - | 872 W/m² | - |
| 1777756517 | 23.33° C | 50% | 1011.6 hPa | 0 mm | - | 784 W/m² | - |
| 1777756218 | 22.78° C | 50% | 1011.6 hPa | 0 mm | - | 739 W/m² | - |
| 1777755918 | 22.78° C | 51% | 1011.7 hPa | 0 mm | - | 752 W/m² | - |
| 1777753517 | 22.22° C | 52% | 1012.2 hPa | 0 mm | - | 823 W/m² | - |
| 1777752917 | 22.22° C | 54% | 1012.3 hPa | 0 mm | - | 808 W/m² | - |
| 1777752617 | 22.22° C | 54% | 1012.4 hPa | 0 mm | - | 835 W/m² | - |
| 1777752317 | 21.67° C | 55% | 1012.4 hPa | 0 mm | - | 875 W/m² | - |
* Rain latest hour (hover to see other rain measurements)
** Current wind speed in m/s (hover to see current wind gust speed)